Погода в Доусоне

Канада     64°03′40″N   139°25′48″W
темп.,
°C
ветер,
м/с
пор.,
м/с
влажн.,
%
обл.,
%
осадки,
мм/ч
давл.,
гПа
погр.,
м
24 января, пн
пн2423:00−15вюв11100100 0.1 102415
02:00−14вюв11100100 0.1 102312
05:00−11в1198100 0.1 102032
08:00−10в1297100 0.0 101752
11:00−10юв2297100 0.0 101346
14:00−8ю1195100 0.0 101154
17:00−9ююв1198100 0.0 101024
20:00−17ююв1110089 0.0 10129
25 января, вт
вт2523:00−18ююв11100100 0.1 10129
02:00−17ююз1110095 0.1 10129
05:00−17ю1199100 0.1 101312
08:00−19сз1110098 0.0 10149
11:00−19юз00100100 0.1 101610
14:00−12ююз1195100 0.2 101688
17:00−12ююз1197100 0.3 101812
20:00−19ююз1110063 0.0 10239
26 января, ср
ср2623:00−17юз0099100 0.0 102415
02:00−15сз0098100 0.1 102518
05:00−14з0098100 0.4 102511
08:00−16зсз009892 0.3 102710
11:00−17зюз009988 0.4 10289
14:00−14юз009672 0.1 102960
17:00−17зсз009976 0.1 10309
20:00−21зсз11100100 0.0 10329
27 января, чт
чт2723:00−20с11100100 0.1 103111
02:00−18св1199100 0.1 103025
05:00−16св1197100 0.2 102845
08:00−15св1197100 0.6 102457
11:00−14ссв1197100 1.6 102269
14:00−13ссв1195100 0.8 1019137
17:00−12с1196100 1.3 1017130
20:00−13ссз1297100 0.8 1015104
28 января, пт
пт2823:00−14ссз2397100 1.8 1013133
02:00−15ссз2497100 1.4 1013183
05:00−17ссз2498100 2.9 1014195
08:00−19ссз2599100 0.6 1015232
11:00−21ссз2498100 0.8 1017238
14:00−21ссз2495100 0.3 1018290
17:00−22ссз2497100 0.5 1018301
20:00−22ссз2498100 0.4 1019278